W4EMZ Weather Reports


time (UTC)temp
C
wind
direction
speed
KPH
gust
KPH
rain 1hr
cm
rain 24hr
cm
rain mn
cm
humidity
%
barometer
mb
20260504041558 9 164 0.0 0.0 0.00 0.00 0.00 80 992.2
20260504034603 10 164 0.0 1.6 0.00 0.00 0.00 75 992.2
20260504033057 10 163 0.0 0.0 0.00 0.00 0.00 74 992.1
20260504031619 10 163 0.0 0.0 0.00 0.00 0.00 73 992.0
20260504024503 11 163 0.0 0.0 0.00 0.00 0.00 70 991.7
20260504023003 12 163 0.0 0.0 0.00 0.00 0.00 66 991.4
20260504021501 12 163 0.0 0.0 0.00 0.00 0.00 64 991.3
20260504014555 13 163 0.0 0.0 0.00 0.00 0.00 59 991.5
20260504013056 14 163 0.0 1.6 0.00 0.00 0.00 56 991.2
20260504011553 15 163 0.0 0.0 0.00 0.00 0.00 55 991.1
20260504004557 16 163 0.0 0.0 0.00 0.00 0.00 52 990.9
20260504003056 17 163 0.0 1.6 0.00 0.00 0.00 50 990.8
20260504001556 18 164 0.0 1.6 0.00 0.00 0.00 46 990.8
20260503234627 19 254 0.0 6.4 0.00 0.00 0.00 43 990.7
20260503233057 20 309 0.0 4.8 0.00 0.00 0.00 45 990.7
20260503231556 20 248 0.0 8.0 0.00 0.00 0.00 44 990.9
20260503224546 21 219 1.6 4.8 0.00 0.00 0.00 44 991.0
20260503223045 21 300 1.6 4.8 0.00 0.00 0.00 45 991.0
20260503221554 21 247 1.6 6.4 0.00 0.00 0.00 45 991.0
20260503214539 21 163 1.6 11.3 0.00 0.00 0.00 47 991.3
20260503213041 20 231 1.6 11.3 0.00 0.00 0.00 46 991.4
20260503211534 21 303 1.6 8.0 0.00 0.00 0.00 44 991.6
20260503204530 20 144 1.6 6.4 0.00 0.00 0.00 47 992.1
20260503203028 20 236 3.2 11.3 0.00 0.00 0.00 45 992.2
20260503201527 21 77 3.2 9.7 0.00 0.00 0.00 46 992.6
20260503194524 20 65 3.2 12.9 0.00 0.00 0.00 47 993.3
20260503193021 20 11 1.6 6.4 0.00 0.00 0.00 50 993.6
20260503191522 19 107 3.2 11.3 0.00 0.00 0.00 48 993.7
20260503190019 20 296 1.6 6.4 0.00 0.00 0.00 44 993.8
20260503184517 19 298 3.2 12.9 0.00 0.00 0.00 46 993.9
20260503181516 18 105 3.2 12.9 0.00 0.00 0.00 52 994.4
20260503180014 17 19 3.2 8.0 0.00 0.00 0.00 48 994.6
20260503174510 17 24 1.6 6.4 0.00 0.00 0.00 47 994.8
20260503171600 16 189 3.2 8.0 0.00 0.00 0.00 48 995.2
20260503110106 5 94 0.0 0.0 0.00 0.00 0.00 91 995.0
20260503081531 6 71 0.0 0.0 0.00 0.00 0.00 86 993.8
20260503071530 7 32 0.0 0.0 0.00 0.00 0.00 85 993.5
20260503054513 8 11 0.0 1.6 0.00 0.00 0.00 79 993.3
20260503053011 8 11 0.0 0.0 0.00 0.00 0.00 79 993.4
20260503051513 9 11 0.0 3.2 0.00 0.00 0.00 77 993.2
20260503050021 9 284 0.0 1.6 0.00 0.00 0.00 77 993.1
20260503044509 10 284 0.0 3.2 0.00 0.00 0.00 76 992.9
20260503043008 10 70 0.0 6.4 0.00 0.00 0.00 74 992.9